Wind_Speed
60 59 59 58 57 57 56 56 56 57 58 59 59 60 60 61 60 60 59 59 59 58 58 58 57 56 55 54 53 52 51 51 52 52 52 52 50 50 53 58 60 59
63 62 61 61 60 60 60 60 60 61 62 63 63 64 64 63 63 62 62 61 61 60 60 60 60 60 60 59 57 56 55 54 53 54 55 55 55 53 53 57 62 63
66 65 65 64 64 63 64 64 64 65 65 66 67 67 66 65 65 65 64 63 63 63 63 63 63 63 64 63 63 62 60 59 57 56 57 57 58 58 56 58 63 66
68 68 68 68 68 68 68 68 69 69 70 70 70 70 69 69 69 68 68 67 66 65 66 66 66 67 68 68 68 67 66 65 64 61 60 59 60 61 60 60 63 68
71 71 71 71 71 72 72 72 73 73 74 73 73 73 73 73 73 73 72 72 71 70 70 70 71 72 72 72 73 72 72 71 70 69 66 64 63 63 64 63 64 69
73 74 74 74 75 75 75 76 76 77 77 77 76 77 77 77 77 78 78 77 76 75 76 76 77 78 78 78 77 78 78 77 76 75 73 70 67 65 66 66 65 68
76 77 78 78 79 79 79 80 80 80 80 80 80 80 81 81 82 83 84 84 83 82 82 82 83 84 84 84 83 83 83 83 81 79 78 76 73 69 68 68 68 69
79 80 81 82 82 83 83 83 84 84 84 84 84 84 85 85 86 87 88 88 89 89 89 89 89 88 88 88 88 88 87 86 85 83 80 78 77 73 70 70 70 70
83 83 84 85 85 86 86 87 87 88 88 89 88 89 90 90 91 91 91 92 93 93 94 95 94 93 93 92 92 91 90 88 86 84 81 79 78 75 72 71 72 72
86 87 88 88 88 89 90 90 91 91 92 93 93 93 94 95 96 96 95 94 95 95 96 97 97 97 97 97 96 93 90 87 85 83 80 79 78 76 74 73 73 74
89 90 90 91 91 93 93 94 95 96 96 97 97 98 98 99 100 100 98 97 97 97 97 99 99 99 99 98 96 93 88 84 81 79 78 77 77 76 75 73 73 75
92 93 93 94 95 96 98 98 99 100 101 101 102 102 102 102 102 102 101 100 99 99 99 101 101 101 99 96 92 88 84 80 76 75 74 74 75 76 75 73 73 75
94 96 97 97 99 100 102 102 103 104 105 105 106 105 105 104 103 103 102 102 101 101 102 102 102 100 97 92 88 83 80 77 74 72 71 72 73 74 75 73 72 74
98 99 100 101 103 104 105 106 106 107 108 108 109 108 107 106 105 104 104 104 103 103 102 101 99 96 92 88 84 80 76 73 71 70 68 69 71 73 75 75 73 74
101 102 104 105 107 107 108 109 110 111 111 111 111 110 109 107 107 106 105 105 104 102 101 98 95 91 87 83 80 77 74 71 69 68 66 67 70 73 76 77 75 74
105 106 108 109 111 111 112 112 113 113 114 114 113 111 110 109 108 107 106 104 103 100 98 94 91 86 82 79 76 73 71 69 67 66 65 65 67 70 74 77 77 76
110 111 112 113 114 114 115 115 115 115 115 114 112 111 110 108 107 106 104 103 100 97 93 90 86 82 79 77 75 72 70 67 65 64 64 64 65 67 72 76 78 79
114 115 116 117 117 117 116 116 116 115 114 112 110 108 107 105 104 104 102 100 97 92 88 84 81 78 76 74 71 69 67 64 61 61 61 62 63 65 69 74 77 80
118 119 119 119 118 118 117 116 116 114 111 109 107 105 103 102 102 101 98 96 92 87 83 80 77 75 73 69 66 65 63 60 57 57 57 59 61 63 68 72 76 79
122 121 120 119 118 118 117 115 113 110 107 105 103 101 100 99 98 97 94 91 86 82 79 76 74 72 69 65 61 59 58 56 54 53 53 55 57 60 65 71 75 78
124 122 120 119 117 115 113 110 108 106 103 101 100 98 97 96 94 92 89 85 81 78 75 72 71 69 64 59 56 54 54 53 51 50 51 52 54 57 62 69 73 76
123 121 119 116 113 110 107 105 103 101 99 98 96 95 94 92 89 86 82 79 77 74 71 68 66 64 59 55 53 52 52 51 49 49 49 50 51 54 59 66 71 75
120 117 114 112 108 105 103 100 98 97 95 94 94 92 90 87 84 80 77 75 73 71 67 63 61 60 56 52 51 51 50 50 49 47 47 49 49 51 57 64 69 74
116 112 109 107 104 101 98 95 93 91 91 90 90 87 84 81 78 76 73 72 69 66 62 58 56 57 55 51 49 49 48 48 48 46 46 48 49 50 55 62 67 72
110 108 105 102 98 95 92 89 87 87 87 86 84 82 78 76 74 72 70 68 65 61 58 56 54 54 53 49 46 45 46 46 46 45 45 47 48 49 53 61 66 71
104 102 98 95 91 88 85 83 83 82 82 81 78 76 74 72 70 67 65 62 60 58 57 56 54 52 50 46 44 43 44 45 45 44 45 47 48 48 52 60 65 70
Wind_Direction
298 297 297 297 297 296 296 295 295 295 295 296 296 296 296 296 296 295 295 294 293 292 291 290 289 287 285 282 280 278 275 273 271 267 263 259 255 251 245 243 244 243
298 298 297 297 297 297 297 297 297 297 297 297 297 297 297 297 296 296 295 294 293 292 291 290 289 288 287 285 282 280 277 274 271 269 265 261 256 252 246 241 240 241
298 298 298 298 298 298 298 298 298 298 298 298 298 298 298 298 297 296 296 294 293 293 292 291 290 289 288 286 285 283 280 277 272 269 266 262 258 253 247 241 237 238
297 298 298 298 298 298 298 299 299 299 299 299 299 299 299 299 298 297 296 295 294 293 292 292 291 290 289 288 287 285 283 281 277 272 266 262 259 254 249 243 236 234
298 298 298 298 298 298 299 299 299 299 299 299 299 300 300 300 299 298 298 297 296 295 294 294 292 291 290 289 288 286 284 282 279 275 269 264 259 254 250 244 237 232
298 298 298 298 298 298 298 298 299 299 299 299 299 300 300 300 299 299 298 298 297 297 296 295 294 293 291 290 289 287 285 283 279 275 271 265 259 253 248 244 239 233
298 298 298 298 298 298 298 298 298 299 299 299 299 299 299 300 300 299 299 298 298 298 297 296 295 294 292 291 290 288 285 283 279 275 270 266 260 252 246 242 239 234
297 298 298 298 298 298 298 298 298 299 299 299 299 299 299 300 300 299 299 298 298 297 297 296 295 294 292 291 290 287 285 282 278 274 269 264 259 253 246 240 237 233
297 297 297 297 297 297 298 298 298 299 299 300 300 299 299 299 299 299 299 298 297 297 296 295 295 294 293 291 288 286 283 279 276 272 267 262 258 253 246 239 234 231
296 296 296 297 297 297 297 298 298 299 299 299 299 299 299 299 299 299 298 298 297 296 296 295 295 294 292 290 287 284 281 277 274 270 265 260 256 252 247 240 234 229
295 296 296 296 297 297 297 298 298 299 299 299 299 299 299 299 299 298 298 298 297 296 296 295 294 293 291 289 286 284 280 276 272 267 263 258 254 250 246 240 234 228
295 295 296 296 297 297 297 298 298 299 299 299 299 299 299 299 299 298 298 298 297 297 296 295 294 292 290 288 286 283 280 276 271 265 261 256 252 249 245 241 234 228
295 295 295 296 296 296 297 298 298 298 299 299 299 299 299 299 299 299 299 298 298 297 296 294 293 291 290 288 286 283 279 275 270 264 259 254 250 247 244 240 235 228
294 294 295 295 296 296 297 297 298 298 298 299 299 299 300 300 300 299 299 298 297 296 295 294 292 291 290 289 286 282 278 273 269 263 257 252 248 244 241 238 234 228
294 294 295 295 296 296 297 297 298 298 299 299 299 300 300 300 299 299 298 298 297 295 294 294 293 292 291 288 284 281 277 272 268 262 256 250 246 242 239 236 233 228
294 295 295 295 296 297 297 298 298 299 299 299 299 300 300 299 299 299 298 297 296 295 295 295 294 293 290 286 283 279 275 271 266 261 255 249 244 241 237 234 231 227
294 295 295 295 296 296 297 297 298 298 299 299 299 299 299 299 299 298 297 296 296 296 296 296 294 292 289 286 283 279 275 270 265 261 255 249 243 239 236 233 229 225
294 294 294 295 295 296 297 298 298 298 298 299 299 298 298 298 298 297 296 296 296 297 296 295 293 290 287 285 282 279 275 271 266 260 255 249 243 237 234 232 228 225
293 294 294 295 296 297 298 298 298 298 298 298 298 298 298 297 297 296 296 297 297 297 296 294 292 289 287 284 282 278 275 271 266 260 254 248 243 236 232 229 227 224
293 294 295 296 297 298 298 298 298 298 298 298 298 297 297 296 296 296 297 297 297 296 295 293 291 288 286 284 281 277 274 270 265 260 253 247 241 235 230 228 226 222
294 295 296 297 298 298 298 298 298 298 298 297 297 296 296 296 296 297 297 297 297 295 293 292 290 287 285 282 279 276 272 268 263 258 252 246 240 233 228 226 224 222
295 296 297 297 298 298 298 298 298 298 298 297 296 295 296 296 297 297 297 296 295 293 292 290 288 285 283 281 278 275 271 267 262 256 251 245 238 231 226 223 222 220
295 296 297 298 298 298 298 298 297 297 296 295 295 295 296 297 298 297 297 295 294 292 290 288 286 285 283 280 277 272 268 265 261 255 249 244 237 229 223 221 219 218
296 297 297 297 298 298 297 297 296 295 294 294 295 296 297 298 297 297 295 294 292 291 289 287 285 283 281 278 273 269 266 262 259 254 247 241 236 228 220 218 217 215
296 296 297 297 297 297 296 296 295 294 293 294 296 297 298 298 297 296 295 293 292 290 288 286 284 280 278 275 271 267 264 260 257 253 246 239 234 226 218 216 215 213
295 295 296 296 296 296 295 294 293 293 294 296 297 298 297 297 296 295 294 292 291 289 287 285 283 279 278 276 272 268 264 259 254 250 245 238 231 224 216 214 213 210
Height
10680 10679 10677 10676 10675 10674 10673 10672 10671 10670 10669 10667 10666 10665 10664 10662 10661 10660 10659 10657 10656 10655 10654 10653 10652 10652 10652 10652 10653 10653 10654 10655 10655 10655 10656 10658 10659 10660 10661 10661 10661 10663
10671 10670 10669 10668 10666 10665 10664 10663 10662 10661 10659 10657 10656 10654 10653 10652 10651 10650 10649 10648 10647 10645 10644 10643 10642 10642 10641 10641 10642 10642 10644 10645 10646 10646 10646 10648 10649 10650 10652 10652 10653 10655
10662 10661 10659 10658 10657 10656 10654 10653 10652 10651 10650 10648 10646 10644 10643 10642 10640 10639 10638 10637 10637 10635 10634 10633 10632 10631 10630 10630 10631 10631 10632 10633 10634 10635 10636 10637 10638 10640 10642 10643 10644 10646
10654 10652 10651 10649 10647 10646 10644 10643 10642 10640 10638 10637 10635 10632 10631 10630 10628 10627 10626 10625 10624 10624 10623 10622 10621 10620 10619 10619 10619 10619 10619 10620 10621 10622 10624 10626 10627 10628 10631 10633 10635 10636
10645 10643 10641 10639 10638 10636 10634 10633 10631 10628 10627 10625 10623 10621 10619 10617 10616 10614 10613 10611 10611 10610 10609 10608 10608 10607 10606 10606 10606 10606 10606 10607 10607 10607 10609 10612 10614 10616 10618 10621 10624 10626
10636 10633 10631 10629 10628 10626 10624 10622 10620 10617 10615 10614 10612 10609 10607 10605 10603 10601 10599 10597 10597 10596 10595 10594 10593 10592 10591 10591 10592 10592 10591 10592 10592 10592 10593 10595 10598 10602 10604 10607 10612 10615
10626 10624 10621 10619 10617 10614 10612 10610 10608 10605 10603 10602 10601 10598 10595 10592 10591 10588 10585 10583 10581 10580 10579 10579 10578 10577 10575 10575 10575 10575 10574 10574 10575 10576 10577 10578 10581 10585 10589 10593 10597 10602
10615 10613 10610 10608 10605 10603 10600 10598 10595 10593 10590 10588 10587 10585 10581 10579 10577 10575 10572 10569 10567 10565 10563 10562 10562 10561 10559 10558 10557 10556 10555 10555 10555 10557 10559 10561 10562 10567 10574 10578 10582 10587
10604 10602 10599 10597 10594 10591 10588 10585 10583 10580 10577 10574 10573 10570 10567 10564 10562 10560 10559 10556 10553 10551 10548 10545 10544 10543 10541 10539 10538 10537 10536 10535 10535 10536 10539 10542 10544 10549 10556 10562 10567 10572
10594 10591 10588 10586 10583 10580 10577 10574 10571 10568 10565 10562 10559 10556 10553 10550 10546 10544 10543 10541 10539 10536 10532 10528 10526 10524 10521 10519 10517 10515 10516 10516 10515 10516 10519 10522 10526 10531 10538 10544 10551 10557
10582 10579 10576 10574 10571 10567 10564 10561 10557 10554 10551 10548 10545 10542 10539 10536 10531 10528 10525 10524 10521 10518 10514 10510 10506 10503 10501 10498 10495 10493 10494 10495 10496 10497 10499 10504 10508 10512 10519 10527 10535 10542
10570 10567 10563 10561 10558 10554 10550 10548 10544 10539 10536 10533 10529 10526 10524 10520 10516 10512 10508 10506 10503 10500 10496 10491 10486 10482 10479 10477 10475 10473 10473 10474 10476 10479 10481 10485 10490 10495 10501 10509 10518 10526
10558 10554 10551 10548 10545 10541 10537 10534 10530 10526 10522 10518 10514 10510 10507 10503 10499 10495 10491 10488 10484 10481 10476 10472 10467 10462 10458 10456 10454 10453 10453 10454 10456 10460 10463 10467 10473 10478 10484 10492 10501 10510
10545 10542 10538 10535 10532 10528 10524 10520 10516 10512 10507 10503 10498 10494 10490 10486 10482 10478 10474 10470 10466 10462 10457 10453 10448 10443 10440 10436 10433 10432 10434 10436 10438 10441 10446 10450 10455 10461 10467 10474 10483 10493
10533 10529 10525 10521 10517 10514 10510 10506 10501 10497 10492 10487 10481 10477 10473 10469 10465 10461 10456 10451 10447 10443 10438 10434 10429 10425 10421 10417 10415 10414 10415 10418 10420 10424 10429 10433 10437 10443 10449 10457 10467 10477
10519 10516 10511 10506 10502 10499 10495 10491 10487 10482 10477 10471 10466 10461 10457 10453 10448 10443 10438 10433 10428 10424 10420 10415 10410 10406 10402 10399 10396 10397 10398 10401 10404 10407 10412 10417 10421 10426 10433 10440 10450 10460
10504 10501 10496 10492 10488 10484 10480 10476 10472 10467 10462 10456 10451 10445 10440 10436 10431 10425 10420 10415 10411 10408 10404 10399 10394 10389 10385 10382 10380 10379 10380 10384 10388 10392 10396 10401 10406 10412 10417 10424 10433 10443
10489 10485 10481 10477 10473 10469 10465 10461 10456 10451 10445 10440 10435 10430 10424 10420 10414 10408 10403 10398 10394 10392 10388 10383 10379 10373 10369 10367 10366 10364 10364 10367 10372 10376 10380 10385 10391 10397 10402 10408 10417 10426
10473 10469 10465 10461 10457 10453 10449 10445 10439 10434 10428 10423 10419 10415 10409 10404 10398 10392 10388 10383 10379 10377 10373 10368 10364 10358 10355 10354 10353 10351 10350 10352 10356 10360 10365 10370 10375 10382 10388 10393 10401 10410
10457 10453 10450 10446 10442 10437 10433 10428 10422 10416 10412 10406 10402 10398 10393 10388 10383 10378 10373 10369 10365 10362 10358 10354 10349 10344 10342 10341 10340 10339 10337 10339 10343 10346 10350 10355 10361 10368 10374 10379 10386 10395
10440 10437 10434 10430 10427 10423 10417 10412 10405 10400 10396 10391 10386 10382 10377 10373 10369 10365 10360 10355 10351 10347 10344 10341 10336 10331 10330 10330 10328 10327 10326 10327 10331 10334 10337 10342 10348 10354 10361 10366 10373 10382
10425 10422 10419 10415 10411 10407 10402 10396 10390 10385 10380 10375 10370 10367 10363 10359 10355 10351 10347 10342 10338 10333 10331 10329 10324 10319 10319 10319 10317 10316 10315 10317 10320 10322 10325 10330 10336 10341 10348 10354 10361 10370
10411 10408 10404 10400 10395 10391 10387 10382 10377 10372 10366 10360 10355 10352 10350 10346 10341 10337 10333 10329 10325 10321 10318 10317 10312 10307 10307 10308 10307 10305 10305 10307 10309 10311 10315 10319 10324 10330 10336 10342 10349 10358
10396 10393 10390 10386 10381 10377 10373 10369 10364 10359 10353 10347 10343 10340 10337 10333 10328 10325 10321 10316 10313 10309 10306 10305 10302 10297 10295 10297 10296 10295 10296 10297 10299 10302 10306 10309 10313 10319 10324 10330 10337 10346
10383 10380 10376 10373 10369 10364 10360 10356 10351 10345 10339 10335 10332 10328 10325 10321 10316 10313 10309 10304 10301 10298 10294 10293 10291 10288 10285 10286 10286 10285 10286 10288 10290 10293 10297 10299 10302 10308 10314 10320 10326 10335
10371 10367 10364 10360 10356 10352 10348 10343 10337 10332 10328 10324 10320 10316 10313 10309 10305 10301 10298 10293 10289 10286 10283 10281 10280 10278 10276 10275 10276 10276 10277 10279 10282 10285 10287 10289 10293 10298 10304 10310 10317 10326